QPF
0.00 0.00 0.00 0.00 0.00 0.00 0.00 0.00 0.00 0.00 0.00 0.00 0.00 0.00 0.00 0.00 0.00 0.00 0.00 0.00 0.00 0.00 0.00 0.00 0.01 0.01 0.01 0.01 0.01 0.02 0.01 0.01 0.01 0.01 0.00 0.00 0.00 0.00 0.00 0.00 0.00 0.00 0.00
0.00 0.00 0.00 0.00 0.00 0.00 0.00 0.00 0.00 0.00 0.00 0.00 0.00 0.00 0.00 0.00 0.00 0.00 0.00 0.00 0.00 0.00 0.00 0.00 0.01 0.01 0.02 0.02 0.02 0.02 0.02 0.02 0.01 0.01 0.01 0.01 0.01 0.01 0.00 0.00 0.01 0.00 0.00
0.00 0.00 0.00 0.00 0.00 0.00 0.00 0.00 0.00 0.00 0.00 0.00 0.00 0.00 0.00 0.00 0.00 0.00 0.00 0.00 0.00 0.00 0.00 0.00 0.01 0.01 0.02 0.02 0.03 0.04 0.03 0.03 0.02 0.02 0.02 0.02 0.02 0.01 0.01 0.01 0.00 0.00 0.01
0.00 0.00 0.00 0.00 0.00 0.00 0.00 0.00 0.00 0.00 0.00 0.00 0.00 0.00 0.00 0.00 0.00 0.00 0.00 0.00 0.00 0.00 0.00 0.00 0.00 0.01 0.02 0.02 0.04 0.05 0.05 0.05 0.04 0.03 0.03 0.03 0.02 0.02 0.02 0.01 0.01 0.01 0.00
0.00 0.00 0.00 0.00 0.00 0.00 0.00 0.00 0.00 0.00 0.00 0.00 0.00 0.00 0.00 0.00 0.00 0.00 0.00 0.00 0.00 0.00 0.00 0.00 0.00 0.00 0.01 0.01 0.03 0.04 0.06 0.05 0.05 0.05 0.04 0.04 0.03 0.03 0.03 0.03 0.03 0.03 0.01
0.02 0.02 0.02 0.01 0.01 0.01 0.01 0.00 0.00 0.00 0.00 0.00 0.00 0.00 0.00 0.00 0.00 0.00 0.00 0.00 0.00 0.00 0.00 0.00 0.00 0.00 0.00 0.00 0.01 0.02 0.03 0.04 0.05 0.05 0.05 0.05 0.05 0.05 0.05 0.05 0.05 0.05 0.04
0.06 0.04 0.04 0.03 0.03 0.02 0.01 0.01 0.01 0.00 0.00 0.00 0.00 0.00 0.00 0.00 0.00 0.00 0.00 0.00 0.00 0.00 0.00 0.00 0.00 0.00 0.00 0.00 0.00 0.00 0.01 0.02 0.03 0.03 0.04 0.04 0.05 0.05 0.06 0.07 0.07 0.07 0.07
0.06 0.04 0.04 0.04 0.03 0.02 0.02 0.02 0.02 0.01 0.01 0.01 0.01 0.01 0.00 0.00 0.00 0.00 0.00 0.00 0.00 0.01 0.01 0.01 0.01 0.01 0.01 0.00 0.00 0.00 0.00 0.01 0.01 0.01 0.02 0.03 0.04 0.05 0.06 0.08 0.09 0.09 0.10
0.08 0.06 0.05 0.06 0.05 0.04 0.03 0.03 0.02 0.02 0.03 0.03 0.03 0.04 0.04 0.02 0.01 0.01 0.00 0.00 0.00 0.00 0.01 0.01 0.01 0.00 0.00 0.00 0.00 0.00 0.01 0.01 0.01 0.01 0.01 0.02 0.03 0.04 0.06 0.08 0.09 0.11 0.12
0.12 0.11 0.10 0.09 0.07 0.06 0.06 0.05 0.04 0.04 0.05 0.05 0.06 0.06 0.06 0.05 0.04 0.02 0.01 0.00 0.00 0.00 0.00 0.00 0.00 0.00 0.01 0.01 0.01 0.01 0.00 0.00 0.00 0.01 0.02 0.02 0.03 0.05 0.07 0.08 0.07 0.07 0.08
0.15 0.14 0.12 0.11 0.10 0.09 0.09 0.08 0.07 0.07 0.06 0.06 0.05 0.05 0.05 0.05 0.04 0.04 0.02 0.01 0.01 0.01 0.01 0.01 0.01 0.01 0.02 0.01 0.00 0.00 0.00 0.00 0.01 0.01 0.02 0.02 0.02 0.04 0.06 0.06 0.06 0.06 0.07
0.19 0.17 0.15 0.14 0.13 0.12 0.10 0.09 0.08 0.07 0.05 0.06 0.06 0.06 0.05 0.05 0.04 0.05 0.05 0.04 0.03 0.02 0.02 0.02 0.02 0.02 0.01 0.01 0.01 0.01 0.00 0.00 0.01 0.01 0.02 0.02 0.02 0.02 0.03 0.04 0.04 0.04 0.05
0.19 0.17 0.16 0.15 0.13 0.11 0.10 0.09 0.09 0.08 0.09 0.08 0.08 0.07 0.06 0.06 0.06 0.06 0.05 0.04 0.03 0.02 0.02 0.02 0.01 0.01 0.01 0.01 0.01 0.01 0.01 0.00 0.01 0.01 0.01 0.02 0.01 0.02 0.03 0.04 0.04 0.03 0.03
0.20 0.18 0.15 0.13 0.11 0.09 0.07 0.06 0.05 0.03 0.03 0.03 0.03 0.03 0.03 0.03 0.03 0.03 0.04 0.04 0.03 0.02 0.01 0.01 0.00 0.00 0.00 0.00 0.00 0.01 0.00 0.01 0.00 0.01 0.01 0.01 0.01 0.01 0.02 0.04 0.03 0.02 0.02
0.16 0.16 0.14 0.11 0.10 0.08 0.06 0.05 0.04 0.03 0.02 0.02 0.02 0.02 0.02 0.02 0.02 0.03 0.03 0.03 0.03 0.02 0.01 0.00 0.00 0.00 0.00 0.00 0.01 0.01 0.00 0.01 0.01 0.01 0.01 0.00 0.00 0.01 0.02 0.04 0.03 0.02 0.02
0.12 0.13 0.12 0.11 0.09 0.08 0.07 0.06 0.04 0.03 0.02 0.02 0.02 0.02 0.02 0.02 0.02 0.02 0.02 0.02 0.02 0.02 0.02 0.01 0.00 0.00 0.00 0.01 0.01 0.01 0.01 0.01 0.01 0.01 0.01 0.00 0.00 0.01 0.02 0.03 0.03 0.02 0.02
0.11 0.11 0.11 0.09 0.08 0.07 0.07 0.06 0.04 0.03 0.03 0.03 0.03 0.02 0.02 0.02 0.02 0.02 0.02 0.02 0.02 0.03 0.02 0.01 0.00 0.00 0.00 0.00 0.01 0.01 0.01 0.01 0.01 0.01 0.01 0.00 0.00 0.01 0.01 0.02 0.02 0.02 0.01
0.09 0.09 0.09 0.10 0.09 0.08 0.07 0.07 0.07 0.07 0.06 0.05 0.03 0.03 0.02 0.02 0.02 0.02 0.02 0.02 0.02 0.02 0.02 0.01 0.01 0.01 0.01 0.01 0.01 0.01 0.01 0.00 0.00 0.01 0.01 0.00 0.00 0.00 0.01 0.01 0.01 0.01 0.01
0.06 0.06 0.05 0.05 0.06 0.07 0.07 0.06 0.05 0.05 0.05 0.04 0.04 0.03 0.02 0.01 0.01 0.01 0.01 0.01 0.01 0.01 0.01 0.01 0.01 0.01 0.01 0.01 0.01 0.01 0.00 0.00 0.00 0.01 0.01 0.00 0.00 0.00 0.00 0.00 0.00 0.00 0.00
0.05 0.05 0.04 0.03 0.03 0.03 0.03 0.03 0.03 0.03 0.02 0.02 0.02 0.02 0.01 0.01 0.01 0.00 0.00 0.00 0.00 0.00 0.00 0.01 0.01 0.01 0.01 0.01 0.01 0.01 0.01 0.00 0.00 0.00 0.00 0.00 0.00 0.00 0.00 0.00 0.00 0.00 0.00
0.02 0.03 0.03 0.03 0.02 0.02 0.02 0.02 0.02 0.02 0.02 0.01 0.01 0.01 0.00 0.00 0.00 0.00 0.00 0.00 0.00 0.00 0.00 0.00 0.00 0.00 0.01 0.01 0.01 0.00 0.00 0.00 0.00 0.00 0.00 0.00 0.00 0.00 0.00 0.00 0.00 0.00 0.00
0.01 0.01 0.01 0.01 0.01 0.01 0.01 0.01 0.01 0.01 0.01 0.00 0.00 0.00 0.00 0.00 0.00 0.00 0.00 0.00 0.00 0.00 0.00 0.00 0.00 0.00 0.00 0.00 0.00 0.01 0.01 0.01 0.01 0.00 0.00 0.00 0.00 0.00 0.00 0.00 0.00 0.00 0.00
0.01 0.01 0.01 0.01 0.01 0.01 0.01 0.01 0.00 0.00 0.00 0.00 0.00 0.00 0.00 0.00 0.00 0.00 0.00 0.00 0.00 0.00 0.00 0.00 0.00 0.00 0.00 0.00 0.01 0.01 0.01 0.01 0.01 0.01 0.01 0.01 0.00 0.00 0.00 0.00 0.00 0.00 0.00
0.01 0.01 0.01 0.01 0.01 0.01 0.01 0.00 0.00 0.00 0.00 0.00 0.00 0.00 0.00 0.00 0.00 0.00 0.00 0.00 0.00 0.00 0.00 0.00 0.00 0.00 0.00 0.00 0.00 0.01 0.01 0.01 0.01 0.00 0.00 0.00 0.00 0.00 0.00 0.00 0.00 0.00 0.00
0.01 0.01 0.01 0.00 0.00 0.00 0.00 0.00 0.00 0.00 0.00 0.00 0.00 0.00 0.00 0.00 0.00 0.00 0.00 0.00 0.00 0.00 0.00 0.00 0.00 0.00 0.00 0.00 0.00 0.00 0.00 0.00 0.00 0.00 0.00 0.00 0.00 0.00 0.00 0.00 0.00 0.00 0.00
0.02 0.02 0.01 0.01 0.01 0.01 0.01 0.01 0.01 0.00 0.00 0.00 0.00 0.00 0.00 0.00 0.00 0.00 0.00 0.00 0.00 0.00 0.00 0.00 0.00 0.00 0.00 0.00 0.00 0.00 0.00 0.00 0.00 0.00 0.00 0.00 0.00 0.00 0.00 0.00 0.00 0.00 0.00
MSLP
1019.63 1019.99 1020.33 1020.62 1020.88 1021.10 1021.30 1021.48 1021.64 1021.79 1021.94 1022.09 1022.22 1022.34 1022.44 1022.52 1022.58 1022.64 1022.69 1022.75 1022.82 1022.92 1023.03 1023.15 1023.28 1023.41 1023.53 1023.63 1023.72 1023.79 1023.85 1023.89 1023.93 1023.95 1023.98 1023.99 1024.00 1024.00 1024.00 1023.99 1023.98 1023.97 1023.95
1019.48 1019.85 1020.21 1020.55 1020.86 1021.14 1021.38 1021.58 1021.76 1021.91 1022.04 1022.16 1022.26 1022.35 1022.42 1022.47 1022.51 1022.53 1022.56 1022.59 1022.64 1022.71 1022.80 1022.92 1023.04 1023.17 1023.29 1023.41 1023.51 1023.60 1023.68 1023.75 1023.82 1023.87 1023.92 1023.97 1024.00 1024.03 1024.06 1024.08 1024.10 1024.12 1024.15
1019.25 1019.63 1020.03 1020.42 1020.80 1021.14 1021.44 1021.68 1021.88 1022.04 1022.17 1022.27 1022.34 1022.40 1022.43 1022.45 1022.45 1022.43 1022.42 1022.41 1022.42 1022.46 1022.51 1022.60 1022.71 1022.83 1022.96 1023.08 1023.21 1023.32 1023.43 1023.53 1023.63 1023.72 1023.80 1023.87 1023.94 1023.99 1024.03 1024.07 1024.12 1024.17 1024.23
1018.99 1019.39 1019.82 1020.27 1020.70 1021.11 1021.46 1021.76 1021.99 1022.16 1022.29 1022.38 1022.44 1022.47 1022.47 1022.46 1022.42 1022.36 1022.31 1022.26 1022.22 1022.21 1022.23 1022.29 1022.37 1022.48 1022.61 1022.74 1022.88 1023.02 1023.15 1023.28 1023.41 1023.53 1023.64 1023.74 1023.82 1023.88 1023.93 1023.98 1024.04 1024.10 1024.19
1018.73 1019.14 1019.60 1020.09 1020.58 1021.03 1021.43 1021.77 1022.03 1022.22 1022.36 1022.45 1022.50 1022.52 1022.51 1022.47 1022.41 1022.33 1022.24 1022.15 1022.08 1022.03 1022.02 1022.05 1022.11 1022.21 1022.33 1022.47 1022.61 1022.76 1022.91 1023.06 1023.20 1023.34 1023.47 1023.57 1023.66 1023.72 1023.76 1023.79 1023.84 1023.90 1023.98
1018.49 1018.90 1019.37 1019.88 1020.39 1020.87 1021.30 1021.66 1021.95 1022.16 1022.31 1022.42 1022.48 1022.51 1022.50 1022.47 1022.40 1022.31 1022.21 1022.11 1022.02 1021.96 1021.93 1021.95 1022.00 1022.09 1022.20 1022.33 1022.46 1022.61 1022.75 1022.90 1023.05 1023.18 1023.30 1023.40 1023.47 1023.51 1023.52 1023.52 1023.53 1023.56 1023.63
1018.25 1018.65 1019.10 1019.61 1020.11 1020.60 1021.04 1021.41 1021.71 1021.95 1022.12 1022.25 1022.34 1022.40 1022.42 1022.41 1022.37 1022.30 1022.22 1022.13 1022.05 1021.99 1021.97 1021.99 1022.04 1022.13 1022.23 1022.34 1022.46 1022.58 1022.71 1022.83 1022.95 1023.07 1023.16 1023.23 1023.27 1023.27 1023.24 1023.18 1023.14 1023.12 1023.16
1017.98 1018.34 1018.77 1019.25 1019.73 1020.20 1020.63 1021.00 1021.32 1021.57 1021.78 1021.95 1022.08 1022.18 1022.26 1022.30 1022.30 1022.28 1022.23 1022.18 1022.13 1022.11 1022.12 1022.15 1022.22 1022.31 1022.40 1022.50 1022.59 1022.68 1022.76 1022.84 1022.92 1022.99 1023.05 1023.08 1023.07 1023.02 1022.93 1022.82 1022.71 1022.63 1022.63
1017.64 1017.97 1018.36 1018.80 1019.25 1019.69 1020.10 1020.47 1020.79 1021.07 1021.31 1021.53 1021.72 1021.88 1022.02 1022.12 1022.18 1022.21 1022.22 1022.22 1022.23 1022.26 1022.30 1022.38 1022.47 1022.57 1022.66 1022.74 1022.80 1022.85 1022.88 1022.91 1022.93 1022.95 1022.96 1022.94 1022.89 1022.79 1022.64 1022.47 1022.30 1022.16 1022.10
1017.23 1017.53 1017.88 1018.28 1018.70 1019.11 1019.50 1019.87 1020.20 1020.51 1020.79 1021.06 1021.31 1021.53 1021.73 1021.89 1022.01 1022.10 1022.17 1022.23 1022.29 1022.37 1022.47 1022.59 1022.71 1022.82 1022.92 1022.99 1023.03 1023.03 1023.02 1023.00 1022.97 1022.95 1022.91 1022.85 1022.75 1022.61 1022.42 1022.19 1021.96 1021.77 1021.66
1016.75 1017.04 1017.37 1017.75 1018.14 1018.53 1018.92 1019.29 1019.64 1019.98 1020.31 1020.62 1020.92 1021.20 1021.44 1021.65 1021.82 1021.96 1022.07 1022.17 1022.28 1022.41 1022.55 1022.71 1022.87 1023.01 1023.12 1023.18 1023.21 1023.19 1023.15 1023.09 1023.03 1022.97 1022.90 1022.81 1022.69 1022.52 1022.30 1022.05 1021.78 1021.54 1021.38
1016.27 1016.56 1016.90 1017.27 1017.65 1018.05 1018.44 1018.82 1019.20 1019.56 1019.93 1020.28 1020.61 1020.92 1021.20 1021.43 1021.63 1021.79 1021.92 1022.06 1022.20 1022.35 1022.53 1022.72 1022.91 1023.08 1023.21 1023.29 1023.32 1023.30 1023.25 1023.18 1023.10 1023.03 1022.95 1022.86 1022.74 1022.56 1022.34 1022.07 1021.78 1021.51 1021.31
1015.83 1016.16 1016.52 1016.91 1017.31 1017.71 1018.12 1018.52 1018.92 1019.31 1019.69 1020.07 1020.42 1020.75 1021.03 1021.27 1021.47 1021.62 1021.76 1021.90 1022.04 1022.22 1022.41 1022.63 1022.84 1023.04 1023.20 1023.30 1023.35 1023.36 1023.32 1023.27 1023.21 1023.16 1023.10 1023.02 1022.91 1022.76 1022.55 1022.28 1021.99 1021.71 1021.49
1015.52 1015.90 1016.30 1016.72 1017.15 1017.57 1018.00 1018.42 1018.83 1019.23 1019.63 1020.01 1020.37 1020.68 1020.95 1021.18 1021.35 1021.49 1021.61 1021.73 1021.87 1022.04 1022.24 1022.46 1022.69 1022.91 1023.10 1023.25 1023.34 1023.38 1023.39 1023.39 1023.37 1023.35 1023.33 1023.29 1023.22 1023.10 1022.92 1022.68 1022.41 1022.14 1021.90
1015.39 1015.82 1016.27 1016.72 1017.18 1017.63 1018.07 1018.50 1018.92 1019.33 1019.72 1020.09 1020.43 1020.73 1020.97 1021.16 1021.31 1021.42 1021.51 1021.60 1021.71 1021.87 1022.06 1022.28 1022.52 1022.76 1022.98 1023.16 1023.30 1023.41 1023.48 1023.54 1023.58 1023.62 1023.66 1023.67 1023.65 1023.57 1023.43 1023.24 1022.99 1022.74 1022.51
1015.46 1015.94 1016.43 1016.92 1017.39 1017.86 1018.31 1018.74 1019.15 1019.55 1019.93 1020.27 1020.59 1020.85 1021.07 1021.23 1021.34 1021.42 1021.47 1021.54 1021.62 1021.75 1021.92 1022.13 1022.37 1022.62 1022.86 1023.09 1023.28 1023.45 1023.59 1023.72 1023.84 1023.95 1024.04 1024.11 1024.15 1024.12 1024.03 1023.88 1023.67 1023.45 1023.24
1015.74 1016.25 1016.76 1017.27 1017.75 1018.21 1018.65 1019.07 1019.47 1019.85 1020.20 1020.52 1020.81 1021.04 1021.23 1021.36 1021.45 1021.50 1021.53 1021.57 1021.63 1021.72 1021.87 1022.05 1022.28 1022.53 1022.78 1023.04 1023.28 1023.51 1023.72 1023.92 1024.11 1024.29 1024.45 1024.58 1024.66 1024.68 1024.64 1024.53 1024.37 1024.19 1024.01
1016.17 1016.70 1017.21 1017.70 1018.18 1018.62 1019.04 1019.44 1019.82 1020.17 1020.50 1020.79 1021.05 1021.27 1021.43 1021.54 1021.61 1021.65 1021.66 1021.68 1021.72 1021.78 1021.90 1022.06 1022.26 1022.49 1022.75 1023.02 1023.30 1023.57 1023.85 1024.11 1024.36 1024.60 1024.81 1024.99 1025.12 1025.18 1025.18 1025.12 1025.01 1024.86 1024.72
1016.72 1017.22 1017.71 1018.18 1018.62 1019.04 1019.43 1019.81 1020.15 1020.48 1020.78 1021.06 1021.30 1021.50 1021.65 1021.75 1021.82 1021.84 1021.85 1021.85 1021.87 1021.91 1021.99 1022.11 1022.28 1022.49 1022.74 1023.01 1023.30 1023.61 1023.93 1024.24 1024.55 1024.83 1025.09 1025.31 1025.47 1025.58 1025.61 1025.59 1025.52 1025.42 1025.32
1017.31 1017.78 1018.22 1018.64 1019.04 1019.42 1019.79 1020.13 1020.45 1020.76 1021.05 1021.30 1021.53 1021.72 1021.86 1021.97 1022.03 1022.06 1022.06 1022.05 1022.05 1022.07 1022.11 1022.19 1022.32 1022.50 1022.72 1022.98 1023.28 1023.60 1023.94 1024.29 1024.64 1024.97 1025.26 1025.51 1025.70 1025.83 1025.90 1025.91 1025.88 1025.82 1025.77
1017.88 1018.29 1018.68 1019.05 1019.41 1019.75 1020.08 1020.39 1020.70 1020.99 1021.27 1021.51 1021.73 1021.92 1022.06 1022.16 1022.23 1022.25 1022.25 1022.24 1022.22 1022.21 1022.22 1022.27 1022.36 1022.50 1022.69 1022.93 1023.21 1023.54 1023.90 1024.27 1024.64 1025.00 1025.32 1025.59 1025.81 1025.96 1026.06 1026.10 1026.10 1026.08 1026.06
1018.39 1018.74 1019.07 1019.39 1019.70 1020.00 1020.30 1020.59 1020.89 1021.17 1021.44 1021.68 1021.90 1022.08 1022.22 1022.33 1022.39 1022.41 1022.41 1022.39 1022.35 1022.32 1022.31 1022.32 1022.38 1022.48 1022.63 1022.85 1023.12 1023.44 1023.80 1024.19 1024.58 1024.95 1025.30 1025.60 1025.83 1026.01 1026.13 1026.19 1026.22 1026.23 1026.24
1018.79 1019.10 1019.38 1019.64 1019.90 1020.17 1020.44 1020.72 1021.01 1021.29 1021.55 1021.80 1022.02 1022.19 1022.34 1022.44 1022.50 1022.52 1022.51 1022.48 1022.44 1022.40 1022.37 1022.36 1022.39 1022.46 1022.59 1022.78 1023.04 1023.35 1023.71 1024.10 1024.50 1024.89 1025.26 1025.57 1025.83 1026.02 1026.16 1026.24 1026.29 1026.33 1026.36
1019.09 1019.36 1019.59 1019.81 1020.03 1020.27 1020.52 1020.78 1021.06 1021.34 1021.61 1021.86 1022.07 1022.25 1022.39 1022.49 1022.56 1022.58 1022.58 1022.55 1022.51 1022.47 1022.43 1022.41 1022.42 1022.48 1022.60 1022.77 1023.01 1023.31 1023.66 1024.06 1024.46 1024.87 1025.24 1025.57 1025.85 1026.06 1026.21 1026.31 1026.38 1026.43 1026.47
1019.28 1019.52 1019.72 1019.90 1020.09 1020.30 1020.53 1020.78 1021.06 1021.33 1021.60 1021.86 1022.08 1022.26 1022.41 1022.51 1022.58 1022.61 1022.62 1022.60 1022.58 1022.54 1022.52 1022.51 1022.53 1022.58 1022.69 1022.86 1023.09 1023.38 1023.72 1024.10 1024.51 1024.91 1025.29 1025.63 1025.92 1026.15 1026.31 1026.43 1026.51 1026.57 1026.62
1019.37 1019.59 1019.77 1019.93 1020.09 1020.27 1020.49 1020.73 1020.99 1021.27 1021.54 1021.80 1022.03 1022.22 1022.38 1022.49 1022.58 1022.63 1022.66 1022.67 1022.67 1022.66 1022.66 1022.68 1022.71 1022.78 1022.89 1023.05 1023.27 1023.55 1023.88 1024.25 1024.64 1025.04 1025.42 1025.76 1026.05 1026.29 1026.46 1026.59 1026.68 1026.75 1026.81
Thickness
5690 5689 5689 5688 5687 5686 5685 5683 5682 5681 5681 5680 5679 5678 5678 5677 5676 5675 5674 5673 5671 5670 5668 5666 5664 5661 5658 5656 5652 5649 5645 5642 5638 5635 5631 5628 5625 5621 5618 5615 5612 5609 5606
5687 5686 5685 5684 5683 5682 5681 5680 5679 5677 5677 5676 5675 5675 5674 5673 5673 5672 5671 5669 5668 5666 5664 5662 5660 5658 5655 5652 5649 5645 5642 5638 5634 5631 5627 5624 5620 5617 5614 5610 5607 5604 5600
5684 5682 5681 5680 5680 5678 5677 5676 5674 5674 5673 5672 5671 5671 5670 5670 5669 5668 5667 5666 5665 5663 5661 5658 5656 5654 5651 5648 5645 5641 5638 5634 5631 5627 5623 5620 5616 5613 5609 5606 5602 5599 5596
5680 5679 5678 5677 5676 5675 5673 5672 5670 5669 5668 5667 5666 5666 5666 5666 5665 5664 5663 5662 5661 5659 5657 5655 5652 5649 5647 5643 5640 5637 5633 5630 5626 5623 5619 5616 5612 5609 5605 5602 5599 5595 5591
5676 5675 5674 5674 5672 5670 5669 5667 5666 5665 5663 5662 5662 5661 5661 5660 5660 5659 5658 5657 5656 5654 5652 5650 5647 5644 5642 5638 5635 5632 5629 5625 5621 5618 5614 5611 5608 5605 5602 5598 5595 5591 5588
5672 5671 5670 5669 5668 5666 5664 5662 5661 5660 5659 5658 5657 5656 5655 5655 5655 5654 5653 5651 5649 5648 5646 5644 5641 5638 5635 5632 5629 5626 5623 5620 5616 5613 5609 5606 5603 5601 5598 5595 5591 5588 5584
5668 5667 5666 5665 5663 5662 5660 5658 5656 5654 5652 5651 5650 5648 5649 5649 5648 5647 5646 5644 5642 5640 5638 5636 5634 5631 5628 5625 5622 5619 5616 5613 5611 5608 5604 5601 5598 5596 5593 5590 5587 5584 5581
5664 5663 5662 5661 5659 5657 5655 5653 5651 5649 5647 5646 5643 5641 5639 5640 5640 5640 5638 5636 5634 5632 5630 5628 5626 5623 5620 5617 5614 5612 5609 5606 5604 5601 5599 5595 5593 5590 5588 5586 5583 5580 5577
5659 5659 5658 5656 5655 5653 5651 5649 5647 5644 5641 5639 5638 5635 5631 5630 5631 5631 5629 5627 5625 5623 5621 5619 5616 5613 5611 5608 5606 5603 5601 5598 5596 5594 5591 5589 5587 5585 5582 5580 5578 5575 5573
5654 5653 5652 5651 5649 5648 5646 5644 5641 5639 5637 5633 5631 5629 5628 5627 5624 5623 5621 5618 5616 5614 5611 5609 5606 5604 5601 5598 5596 5594 5592 5590 5588 5586 5583 5581 5579 5577 5576 5573 5571 5569 5567
5647 5646 5646 5645 5643 5642 5640 5638 5635 5633 5631 5629 5625 5623 5620 5618 5616 5615 5615 5611 5607 5604 5601 5599 5596 5594 5591 5589 5587 5584 5582 5580 5578 5576 5575 5573 5570 5568 5567 5565 5564 5561 5560
5640 5639 5638 5637 5636 5634 5632 5631 5629 5626 5624 5621 5619 5616 5613 5611 5609 5607 5606 5605 5601 5596 5592 5589 5587 5584 5581 5579 5576 5574 5572 5570 5568 5566 5565 5563 5561 5559 5558 5556 5555 5554 5552
5633 5633 5632 5630 5629 5628 5626 5623 5621 5618 5616 5613 5611 5608 5606 5603 5601 5598 5597 5596 5593 5589 5584 5580 5577 5574 5571 5568 5566 5564 5562 5559 5557 5555 5553 5551 5550 5549 5548 5546 5545 5544 5543
5629 5627 5625 5623 5622 5620 5618 5615 5613 5610 5607 5605 5602 5599 5596 5594 5591 5589 5587 5584 5583 5581 5576 5572 5567 5563 5560 5558 5555 5553 5550 5548 5546 5544 5542 5540 5538 5538 5537 5536 5535 5534 5534
5620 5619 5616 5614 5612 5610 5608 5605 5602 5600 5597 5595 5592 5589 5587 5584 5581 5579 5577 5574 5573 5573 5572 5564 5557 5553 5550 5547 5544 5542 5539 5537 5534 5532 5530 5528 5527 5526 5525 5525 5524 5523 5522
5611 5608 5606 5604 5602 5600 5599 5595 5592 5589 5587 5584 5581 5578 5576 5573 5571 5569 5567 5564 5562 5562 5562 5554 5547 5543 5539 5536 5533 5531 5528 5526 5523 5521 5519 5517 5515 5514 5513 5512 5512 5511 5511
5600 5598 5596 5594 5592 5589 5587 5585 5582 5578 5575 5572 5570 5567 5565 5562 5560 5558 5556 5554 5552 5550 5550 5543 5536 5532 5528 5525 5522 5519 5516 5514 5512 5509 5508 5506 5504 5503 5501 5500 5500 5500 5499
5588 5587 5585 5582 5580 5578 5576 5574 5571 5568 5565 5562 5559 5556 5554 5551 5548 5546 5544 5542 5541 5539 5538 5534 5526 5521 5518 5514 5511 5507 5504 5502 5500 5498 5496 5495 5493 5492 5490 5489 5489 5489 5488
5577 5576 5574 5572 5569 5567 5564 5562 5560 5557 5554 5551 5548 5546 5543 5540 5537 5534 5532 5530 5529 5527 5526 5523 5516 5511 5507 5504 5500 5496 5493 5491 5489 5487 5485 5484 5482 5481 5480 5479 5478 5478 5478
5566 5564 5562 5560 5557 5555 5553 5550 5548 5544 5542 5539 5537 5534 5532 5529 5526 5523 5521 5519 5517 5515 5513 5511 5506 5500 5497 5493 5489 5485 5481 5479 5477 5476 5475 5473 5471 5470 5469 5469 5468 5468 5468
5553 5551 5549 5547 5545 5543 5541 5539 5536 5533 5530 5527 5524 5522 5519 5517 5515 5513 5510 5508 5506 5503 5501 5498 5494 5490 5486 5483 5480 5477 5473 5468 5466 5465 5464 5462 5461 5460 5459 5459 5458 5458 5458
5540 5538 5536 5534 5532 5531 5530 5528 5525 5521 5518 5515 5512 5509 5508 5505 5504 5502 5500 5497 5495 5492 5490 5487 5484 5481 5479 5475 5471 5468 5463 5460 5457 5455 5454 5451 5451 5450 5449 5449 5449 5449 5449
5527 5525 5523 5522 5520 5519 5518 5517 5514 5510 5506 5503 5501 5498 5496 5494 5491 5489 5486 5484 5482 5481 5480 5477 5475 5472 5470 5467 5463 5458 5455 5453 5450 5447 5445 5442 5441 5440 5440 5440 5440 5440 5440
5515 5513 5511 5510 5508 5507 5506 5505 5503 5498 5495 5492 5490 5487 5485 5482 5479 5477 5474 5471 5469 5468 5468 5466 5464 5462 5461 5458 5456 5452 5448 5442 5438 5436 5436 5434 5432 5431 5431 5431 5432 5432 5431
5503 5501 5500 5498 5497 5496 5495 5494 5492 5487 5484 5481 5479 5477 5474 5471 5470 5467 5463 5460 5457 5455 5455 5454 5453 5451 5450 5448 5445 5441 5437 5434 5430 5427 5426 5425 5423 5422 5422 5422 5422 5422 5422
5492 5490 5488 5487 5486 5485 5485 5484 5482 5477 5473 5470 5468 5466 5464 5462 5460 5457 5452 5449 5446 5443 5442 5441 5439 5438 5436 5435 5433 5432 5429 5425 5421 5419 5417 5416 5414 5413 5413 5413 5413 5413 5413